Time,TemperatureF,DewpointF,PressureIn,WindDirection,WindDirectionDegrees,WindSpeedMPH,WindSpeedGustMPH,Humidity,HourlyPrecipIn,Conditions,Clouds,dailyrainin,SoftwareType,DateUTC
2013-03-25 00:02:00,28.0,22.3,29.11,NNE,22,7.6,7.6,79,0.00,,---,0.00,VWS V13.01,2013-03-25 05:02:00,
2013-03-25 00:07:00,28.0,22.3,29.11,NE,45,0.0,0.0,79,0.00,,---,0.00,VWS V13.01,2013-03-25 05:07:00,
2013-03-25 00:12:00,28.0,22.3,29.11,NE,45,6.2,18.6,79,0.00,,---,0.00,VWS V13.01,2013-03-25 05:12:00,
2013-03-25 00:17:00,28.0,22.3,29.11,NNW,338,12.8,12.8,79,0.00,,---,0.00,VWS V13.01,2013-03-25 05:17:00,
2013-03-25 00:23:00,28.0,22.6,29.11,NE,45,17.0,17.0,80,0.00,,---,0.00,VWS V13.01,2013-03-25 05:23:00,
2013-03-25 00:29:00,28.0,22.6,29.11,NNE,22,4.0,13.8,80,0.00,,---,0.00,VWS V13.01,2013-03-25 05:29:00,
2013-03-25 00:34:00,28.0,22.6,29.11,NNE,22,6.2,6.2,80,0.00,,---,0.00,VWS V13.01,2013-03-25 05:34:00,
2013-03-25 00:39:00,28.0,22.6,29.10,NNE,22,0.0,0.0,80,0.00,,---,0.00,VWS V13.01,2013-03-25 05:39:00,
2013-03-25 00:44:00,28.0,22.6,29.11,NNE,22,20.4,20.4,80,0.00,,---,0.00,VWS V13.01,2013-03-25 05:44:00,
2013-03-25 00:49:00,27.8,22.4,29.11,NNE,22,7.0,7.0,80,0.00,,---,0.00,VWS V13.01,2013-03-25 05:49:00,
2013-03-25 00:54:00,27.6,22.2,29.11,NW,315,8.0,8.0,80,0.00,,---,0.00,VWS V13.01,2013-03-25 05:54:00,
2013-03-25 01:00:00,27.6,22.0,29.11,NNW,338,12.0,12.0,79,0.00,,---,0.00,VWS V13.01,2013-03-25 06:00:00,
2013-03-25 01:05:00,27.6,22.0,29.11,North,0,6.6,6.6,79,0.00,,---,0.00,VWS V13.01,2013-03-25 06:05:00,
2013-03-25 01:10:00,27.6,22.0,29.11,NNE,22,0.0,0.0,79,0.00,,---,0.00,VWS V13.01,2013-03-25 06:10:00,
2013-03-25 01:15:00,27.5,21.9,29.11,NW,315,10.2,10.2,79,0.00,,---,0.00,VWS V13.01,2013-03-25 06:15:00,
2013-03-25 01:20:00,27.5,21.9,29.11,NNW,338,23.2,23.2,79,0.00,,---,0.00,VWS V13.01,2013-03-25 06:20:00,
2013-03-25 01:25:00,27.5,21.9,29.11,NNE,22,5.2,20.0,79,0.00,,---,0.00,VWS V13.01,2013-03-25 06:25:00,
2013-03-25 01:30:00,27.5,21.9,29.11,North,0,12.8,12.8,79,0.00,,---,0.00,VWS V13.01,2013-03-25 06:30:00,
2013-03-25 01:35:00,27.3,21.7,29.11,NNE,22,3.0,3.0,79,0.00,,---,0.00,VWS V13.01,2013-03-25 06:35:00,
2013-03-25 01:40:00,27.3,22.0,29.12,North,0,3.0,14.2,80,0.00,,---,0.00,VWS V13.01,2013-03-25 06:40:00,
2013-03-25 01:45:00,27.3,22.0,29.12,NNE,22,8.0,8.0,80,0.00,,---,0.00,VWS V13.01,2013-03-25 06:45:00,
2013-03-25 01:50:00,27.3,21.7,29.12,NNE,22,27.6,27.6,79,0.00,,---,0.00,VWS V13.01,2013-03-25 06:50:00,
2013-03-25 01:55:00,27.1,21.5,29.12,North,0,16.4,16.4,79,0.00,,---,0.00,VWS V13.01,2013-03-25 06:55:00,
2013-03-25 02:00:00,26.9,21.0,29.12,NNE,22,0.0,0.0,78,0.00,,---,0.00,VWS V13.01,2013-03-25 07:00:00,
2013-03-25 02:05:00,26.7,20.8,29.11,NE,45,0.0,0.0,78,0.00,,---,0.00,VWS V13.01,2013-03-25 07:05:00,
2013-03-25 02:11:00,26.7,20.8,29.11,NNE,22,14.6,14.6,78,0.00,,---,0.00,VWS V13.01,2013-03-25 07:11:00,
2013-03-25 02:16:00,26.6,20.7,29.11,NNE,22,19.2,19.2,78,0.00,,---,0.00,VWS V13.01,2013-03-25 07:16:00,
2013-03-25 02:22:00,26.6,20.7,29.11,NNE,22,0.0,0.0,78,0.00,,---,0.00,VWS V13.01,2013-03-25 07:22:00,
2013-03-25 02:27:00,26.4,20.5,29.12,North,0,5.2,5.2,78,0.00,,---,0.00,VWS V13.01,2013-03-25 07:27:00,
2013-03-25 02:32:00,26.4,20.5,29.12,NE,45,0.0,0.0,78,0.00,,---,0.00,VWS V13.01,2013-03-25 07:32:00,
2013-03-25 02:37:00,26.4,20.5,29.12,NNE,22,7.0,7.0,78,0.00,,---,0.00,VWS V13.01,2013-03-25 07:37:00,
2013-03-25 02:42:00,26.4,20.2,29.12,NE,45,4.8,18.6,77,0.00,,---,0.00,VWS V13.01,2013-03-25 07:42:00,
2013-03-25 02:47:00,26.2,20.0,29.13,NNE,22,9.2,9.2,77,0.00,,---,0.00,VWS V13.01,2013-03-25 07:47:00,
2013-03-25 02:52:00,26.0,19.8,29.12,North,0,7.0,7.0,77,0.00,,---,0.00,VWS V13.01,2013-03-25 07:52:00,
2013-03-25 02:57:00,25.7,19.2,29.12,NNE,22,11.6,11.6,76,0.00,,---,0.00,VWS V13.01,2013-03-25 07:57:00,
2013-03-25 03:02:00,25.5,19.3,29.13,NNE,22,0.0,0.0,77,0.00,,---,0.00,VWS V13.01,2013-03-25 08:02:00,
2013-03-25 03:08:00,25.3,19.1,29.12,North,0,9.2,9.2,77,0.00,,---,0.00,VWS V13.01,2013-03-25 08:08:00,
2013-03-25 03:14:00,25.1,18.9,29.13,NNE,22,0.0,0.0,77,0.00,,---,0.00,VWS V13.01,2013-03-25 08:14:00,
2013-03-25 03:19:00,24.9,18.7,29.12,NNE,22,6.2,6.2,77,0.00,,---,0.00,VWS V13.01,2013-03-25 08:19:00,
2013-03-25 03:24:00,24.9,18.7,29.13,NNE,22,4.0,4.0,77,0.00,,---,0.00,VWS V13.01,2013-03-25 08:24:00,
2013-03-25 03:29:00,24.6,18.4,29.12,North,0,4.4,4.4,77,0.00,,---,0.00,VWS V13.01,2013-03-25 08:29:00,
2013-03-25 03:34:00,24.6,18.4,29.12,NNE,22,0.0,0.0,77,0.00,,---,0.00,VWS V13.01,2013-03-25 08:34:00,
2013-03-25 03:39:00,24.6,18.4,29.12,NNE,22,8.8,8.8,77,0.00,,---,0.00,VWS V13.01,2013-03-25 08:39:00,
2013-03-25 03:44:00,24.6,18.4,29.12,NNE,22,10.2,10.2,77,0.00,,---,0.00,VWS V13.01,2013-03-25 08:44:00,
2013-03-25 03:49:00,24.9,18.7,29.13,NNE,22,0.0,0.0,77,0.00,,---,0.00,VWS V13.01,2013-03-25 08:49:00,
2013-03-25 03:54:00,24.9,19.0,29.13,NNE,22,0.0,0.0,78,0.00,,---,0.00,VWS V13.01,2013-03-25 08:54:00,
2013-03-25 03:59:00,24.9,19.0,29.13,NNE,22,6.2,6.2,78,0.00,,---,0.00,VWS V13.01,2013-03-25 08:59:00,
2013-03-25 04:04:00,24.9,19.0,29.12,North,0,0.0,0.0,78,0.00,,---,0.00,VWS V13.01,2013-03-25 09:04:00,
2013-03-25 04:09:00,24.9,19.0,29.12,North,0,0.0,0.0,78,0.00,,---,0.00,VWS V13.01,2013-03-25 09:09:00,
2013-03-25 04:14:00,24.9,19.0,29.12,NNE,22,0.0,4.0,78,0.00,,---,0.00,VWS V13.01,2013-03-25 09:14:00,
2013-03-25 04:19:00,25.1,19.2,29.12,NNE,22,0.0,0.0,78,0.00,,---,0.00,VWS V13.01,2013-03-25 09:19:00,
2013-03-25 04:24:00,25.1,19.2,29.12,NNE,22,5.8,5.8,78,0.00,,---,0.00,VWS V13.01,2013-03-25 09:24:00,
2013-03-25 04:29:00,25.1,19.2,29.12,NNE,22,7.0,9.2,78,0.00,,---,0.00,VWS V13.01,2013-03-25 09:29:00,
2013-03-25 04:35:00,25.1,18.9,29.12,NNE,22,0.0,3.4,77,0.00,,---,0.00,VWS V13.01,2013-03-25 09:35:00,
2013-03-25 04:40:00,25.1,18.9,29.12,NNE,22,14.2,18.6,77,0.00,,---,0.00,VWS V13.01,2013-03-25 09:40:00,
2013-03-25 04:45:00,25.1,18.6,29.12,NNE,22,22.2,22.2,76,0.00,,---,0.00,VWS V13.01,2013-03-25 09:45:00,
2013-03-25 04:50:00,25.1,18.3,29.12,NNE,22,4.4,4.4,75,0.00,,---,0.00,VWS V13.01,2013-03-25 09:50:00,
2013-03-25 04:55:00,24.9,18.1,29.12,NNE,22,5.2,5.2,75,0.00,,---,0.00,VWS V13.01,2013-03-25 09:55:00,
2013-03-25 05:00:00,24.9,18.1,29.12,NNE,22,0.0,0.0,75,0.00,,---,0.00,VWS V13.01,2013-03-25 10:00:00,
2013-03-25 05:05:00,24.9,18.1,29.13,NNE,22,5.2,5.2,75,0.00,,---,0.00,VWS V13.01,2013-03-25 10:05:00,
2013-03-25 05:10:00,24.9,18.1,29.13,North,0,0.0,8.4,75,0.00,,---,0.00,VWS V13.01,2013-03-25 10:10:00,
2013-03-25 05:15:00,24.9,18.1,29.13,NNW,338,5.8,5.8,75,0.00,,---,0.00,VWS V13.01,2013-03-25 10:15:00,
2013-03-25 05:20:00,24.6,17.8,29.13,North,0,27.2,27.2,75,0.00,,---,0.00,VWS V13.01,2013-03-25 10:20:00,
2013-03-25 05:25:00,24.6,17.8,29.13,NNE,22,12.0,14.6,75,0.00,,---,0.00,VWS V13.01,2013-03-25 10:25:00,
2013-03-25 05:30:00,24.6,17.8,29.12,NNE,22,0.0,0.0,75,0.00,,---,0.00,VWS V13.01,2013-03-25 10:30:00,
2013-03-25 05:35:00,24.6,17.8,29.13,NNE,22,19.2,19.2,75,0.00,,---,0.00,VWS V13.01,2013-03-25 10:35:00,
2013-03-25 05:40:00,24.6,17.8,29.12,NNE,22,0.0,17.0,75,0.00,,---,0.00,VWS V13.01,2013-03-25 10:40:00,
2013-03-25 05:45:00,24.6,17.8,29.13,NNE,22,8.8,8.8,75,0.00,,---,0.00,VWS V13.01,2013-03-25 10:45:00,
2013-03-25 05:50:00,24.4,17.6,29.13,NE,45,7.6,7.6,75,0.00,,---,0.00,VWS V13.01,2013-03-25 10:50:00,
2013-03-25 05:55:00,24.0,17.5,29.13,NNW,338,9.2,9.2,76,0.00,,---,0.00,VWS V13.01,2013-03-25 10:55:00,
2013-03-25 06:00:00,23.9,17.5,29.13,North,0,0.0,0.0,76,0.00,,---,0.00,VWS V13.01,2013-03-25 11:00:00,
2013-03-25 06:05:00,23.7,17.3,29.14,North,0,10.2,10.2,76,0.00,,---,0.00,VWS V13.01,2013-03-25 11:05:00,
2013-03-25 06:10:00,23.5,17.1,29.14,NE,45,0.0,26.8,76,0.00,,---,0.00,VWS V13.01,2013-03-25 11:10:00,
2013-03-25 06:15:00,23.3,17.2,29.14,NNE,22,21.0,21.0,77,0.00,,---,0.00,VWS V13.01,2013-03-25 11:15:00,
2013-03-25 06:20:00,23.1,17.0,29.14,North,0,0.0,11.6,77,0.00,,---,0.00,VWS V13.01,2013-03-25 11:20:00,
2013-03-25 06:25:00,22.8,16.7,29.14,NNE,22,2.2,5.8,77,0.00,,---,0.00,VWS V13.01,2013-03-25 11:25:00,
2013-03-25 06:30:00,22.8,16.7,29.15,North,0,8.8,8.8,77,0.00,,---,0.00,VWS V13.01,2013-03-25 11:30:00,
2013-03-25 06:35:00,22.8,16.7,29.15,NNW,338,5.2,5.8,77,0.00,,---,0.00,VWS V13.01,2013-03-25 11:35:00,
2013-03-25 06:40:00,22.6,16.5,29.15,NNE,22,14.6,14.6,77,0.00,,---,0.00,VWS V13.01,2013-03-25 11:40:00,
2013-03-25 06:45:00,22.6,16.5,29.15,NNE,22,0.0,0.0,77,0.00,,---,0.00,VWS V13.01,2013-03-25 11:45:00,
2013-03-25 06:50:00,22.4,16.3,29.15,NNE,22,0.0,12.8,77,0.00,,---,0.00,VWS V13.01,2013-03-25 11:50:00,
2013-03-25 06:55:00,22.4,16.3,29.15,NNE,22,8.4,8.4,77,0.00,,---,0.00,VWS V13.01,2013-03-25 11:55:00,
2013-03-25 07:00:00,22.4,16.6,29.16,North,0,3.0,3.0,78,0.00,,---,0.00,VWS V13.01,2013-03-25 12:00:00,
2013-03-25 07:05:00,22.2,16.4,29.16,North,0,12.8,17.4,78,0.00,,---,0.00,VWS V13.01,2013-03-25 12:05:00,
2013-03-25 07:10:00,22.2,16.4,29.16,North,0,25.0,25.0,78,0.00,,---,0.00,VWS V13.01,2013-03-25 12:10:00,
2013-03-25 07:15:00,22.2,16.4,29.16,NNE,22,12.4,12.4,78,0.00,,---,0.00,VWS V13.01,2013-03-25 12:15:00,
2013-03-25 07:20:00,22.4,16.6,29.16,North,0,12.4,12.4,78,0.00,,---,0.00,VWS V13.01,2013-03-25 12:20:00,
2013-03-25 07:25:00,22.6,17.1,29.16,North,0,5.8,13.8,79,0.00,,---,0.00,VWS V13.01,2013-03-25 12:25:00,
2013-03-25 07:30:00,22.6,17.1,29.17,NNE,22,11.0,11.0,79,0.00,,---,0.00,VWS V13.01,2013-03-25 12:30:00,
2013-03-25 07:35:00,22.8,17.3,29.17,NNE,22,11.0,11.0,79,0.00,,---,0.00,VWS V13.01,2013-03-25 12:35:00,
2013-03-25 07:40:00,22.8,17.3,29.17,NW,315,18.2,18.2,79,0.00,,---,0.00,VWS V13.01,2013-03-25 12:40:00,
2013-03-25 07:45:00,22.8,17.3,29.18,NNE,22,0.0,0.0,79,0.00,,---,0.00,VWS V13.01,2013-03-25 12:45:00,
2013-03-25 07:51:00,22.8,17.3,29.18,NNE,22,8.8,8.8,79,0.00,,---,0.00,VWS V13.01,2013-03-25 12:51:00,
2013-03-25 07:57:00,22.8,17.0,29.18,NNW,338,5.2,5.8,78,0.00,,---,0.00,VWS V13.01,2013-03-25 12:57:00,
2013-03-25 08:02:00,22.8,17.0,29.18,North,0,12.8,12.8,78,0.00,,---,0.00,VWS V13.01,2013-03-25 13:02:00,
2013-03-25 08:08:00,23.0,17.2,29.19,NNE,22,19.2,19.2,78,0.00,,---,0.00,VWS V13.01,2013-03-25 13:08:00,
2013-03-25 08:14:00,23.1,17.3,29.19,NNE,22,3.0,5.2,78,0.00,,---,0.00,VWS V13.01,2013-03-25 13:14:00,
2013-03-25 08:19:00,23.1,17.3,29.19,NNW,338,6.6,6.6,78,0.00,,---,0.00,VWS V13.01,2013-03-25 13:19:00,
2013-03-25 08:25:00,23.3,17.2,29.19,North,0,11.0,11.0,77,0.00,,---,0.00,VWS V13.01,2013-03-25 13:25:00,
2013-03-25 08:30:00,23.5,17.4,29.19,North,0,4.0,4.0,77,0.00,,---,0.00,VWS V13.01,2013-03-25 13:30:00,
2013-03-25 08:35:00,23.7,17.9,29.20,North,0,0.0,0.8,78,0.00,,---,0.00,VWS V13.01,2013-03-25 13:35:00,
2013-03-25 08:40:00,23.7,17.6,29.20,North,0,4.8,5.2,77,0.00,,---,0.00,VWS V13.01,2013-03-25 13:40:00,
2013-03-25 08:45:00,23.9,17.8,29.20,North,0,0.0,0.0,77,0.00,,---,0.00,VWS V13.01,2013-03-25 13:45:00,
2013-03-25 08:50:00,23.9,17.8,29.20,North,0,0.0,12.8,77,0.00,,---,0.00,VWS V13.01,2013-03-25 13:50:00,
2013-03-25 08:55:00,24.0,17.5,29.21,NNW,338,14.2,14.2,76,0.00,,---,0.00,VWS V13.01,2013-03-25 13:55:00,
2013-03-25 09:00:00,24.4,17.9,29.21,NNE,22,16.0,16.0,76,0.00,,---,0.00,VWS V13.01,2013-03-25 14:00:00,
2013-03-25 09:05:00,24.4,17.9,29.21,NNW,338,12.0,12.0,76,0.00,,---,0.00,VWS V13.01,2013-03-25 14:05:00,
2013-03-25 09:10:00,24.6,18.1,29.21,NNE,22,12.0,30.8,76,0.00,,---,0.00,VWS V13.01,2013-03-25 14:10:00,
2013-03-25 09:15:00,24.6,17.8,29.21,NNE,22,18.6,18.6,75,0.00,,---,0.00,VWS V13.01,2013-03-25 14:15:00,
2013-03-25 09:20:00,24.9,18.1,29.21,NE,45,12.0,12.4,75,0.00,,---,0.00,VWS V13.01,2013-03-25 14:20:00,
2013-03-25 09:25:00,24.9,18.1,29.21,North,0,6.2,9.8,75,0.00,,---,0.00,VWS V13.01,2013-03-25 14:25:00,
2013-03-25 09:30:00,25.1,18.3,29.22,NNE,22,0.0,0.0,75,0.00,,---,0.00,VWS V13.01,2013-03-25 14:30:00,
2013-03-25 09:35:00,25.3,18.5,29.21,NNE,22,11.0,12.4,75,0.00,,---,0.00,VWS V13.01,2013-03-25 14:35:00,
2013-03-25 09:40:00,25.3,18.5,29.21,NNW,338,8.4,12.4,75,0.00,,---,0.00,VWS V13.01,2013-03-25 14:40:00,
2013-03-25 09:45:00,25.5,18.7,29.22,NNW,338,17.8,17.8,75,0.00,,---,0.00,VWS V13.01,2013-03-25 14:45:00,
2013-03-25 09:50:00,25.7,18.6,29.22,NNE,22,7.0,12.8,74,0.00,,---,0.00,VWS V13.01,2013-03-25 14:50:00,
2013-03-25 09:55:00,25.8,18.7,29.22,NNE,22,15.2,15.2,74,0.00,,---,0.00,VWS V13.01,2013-03-25 14:55:00,
2013-03-25 10:01:00,26.2,19.1,29.23,NNW,338,17.0,17.0,74,0.00,,---,0.00,VWS V13.01,2013-03-25 15:01:00,
2013-03-25 10:06:00,26.4,19.2,29.23,NNW,338,11.0,11.0,74,0.00,,---,0.00,VWS V13.01,2013-03-25 15:06:00,
2013-03-25 10:11:00,26.4,19.2,29.23,NNE,22,14.6,14.6,74,0.00,,---,0.00,VWS V13.01,2013-03-25 15:11:00,
2013-03-25 10:17:00,26.9,19.7,29.23,North,0,0.0,0.0,74,0.00,,---,0.00,VWS V13.01,2013-03-25 15:17:00,
2013-03-25 10:22:00,27.3,19.8,29.23,NNE,22,16.0,16.0,73,0.00,,---,0.00,VWS V13.01,2013-03-25 15:22:00,
2013-03-25 10:28:00,27.6,20.1,29.23,NNW,338,12.8,12.8,73,0.00,,---,0.00,VWS V13.01,2013-03-25 15:28:00,
2013-03-25 10:33:00,28.0,20.2,29.23,North,0,25.8,25.8,72,0.00,,---,0.00,VWS V13.01,2013-03-25 15:33:00,
2013-03-25 10:38:00,28.0,20.2,29.24,NW,315,0.0,0.0,72,0.00,,---,0.00,VWS V13.01,2013-03-25 15:38:00,
2013-03-25 10:44:00,28.5,20.6,29.24,NNE,22,3.4,23.6,72,0.00,,---,0.00,VWS V13.01,2013-03-25 15:44:00,
2013-03-25 10:49:00,28.7,20.5,29.24,NNE,22,7.6,7.6,71,0.00,,---,0.00,VWS V13.01,2013-03-25 15:49:00,
2013-03-25 10:54:00,29.1,20.5,29.24,NNW,338,8.0,8.0,70,0.00,,---,0.00,VWS V13.01,2013-03-25 15:54:00,
2013-03-25 10:59:00,29.4,20.8,29.24,North,0,5.2,12.8,70,0.00,,---,0.00,VWS V13.01,2013-03-25 15:59:00,
2013-03-25 11:04:00,29.6,21.0,29.24,NNE,22,0.0,0.0,70,0.00,,---,0.00,VWS V13.01,2013-03-25 16:04:00,
2013-03-25 11:09:00,30.0,21.4,29.24,NNE,22,0.0,0.0,70,0.00,,---,0.00,VWS V13.01,2013-03-25 16:09:00,
2013-03-25 11:14:00,30.2,21.3,29.24,NW,315,7.6,8.4,69,0.00,,---,0.00,VWS V13.01,2013-03-25 16:14:00,
2013-03-25 11:20:00,30.5,21.6,29.24,NNE,22,18.6,18.6,69,0.00,,---,0.00,VWS V13.01,2013-03-25 16:20:00,
2013-03-25 11:25:00,30.7,21.4,29.24,NW,315,4.4,7.0,68,0.00,,---,0.00,VWS V13.01,2013-03-25 16:25:00,
2013-03-25 11:30:00,30.7,21.4,29.25,North,0,0.8,0.8,68,0.00,,---,0.00,VWS V13.01,2013-03-25 16:30:00,
2013-03-25 11:35:00,30.9,21.6,29.25,North,0,8.4,28.6,68,0.00,,---,0.00,VWS V13.01,2013-03-25 16:35:00,
2013-03-25 11:40:00,31.2,21.9,29.25,NNW,338,13.8,20.0,68,0.00,,---,0.00,VWS V13.01,2013-03-25 16:40:00,
2013-03-25 11:45:00,31.4,22.1,29.25,NE,45,19.6,19.6,68,0.00,,---,0.00,VWS V13.01,2013-03-25 16:45:00,
2013-03-25 11:50:00,31.8,22.5,29.25,North,0,18.2,18.2,68,0.00,,---,0.00,VWS V13.01,2013-03-25 16:50:00,
2013-03-25 11:55:00,31.8,22.1,29.25,NNE,22,12.4,12.4,67,0.00,,---,0.00,VWS V13.01,2013-03-25 16:55:00,
2013-03-25 12:00:00,31.8,22.1,29.25,NW,315,17.0,17.0,67,0.00,,---,0.00,VWS V13.01,2013-03-25 17:00:00,
2013-03-25 12:05:00,32.1,22.4,29.25,NNE,22,0.0,0.0,67,0.00,,---,0.00,VWS V13.01,2013-03-25 17:05:00,
2013-03-25 12:10:00,32.1,22.4,29.25,NNW,338,5.8,5.8,67,0.00,,---,0.00,VWS V13.01,2013-03-25 17:10:00,
2013-03-25 12:15:00,32.1,22.0,29.25,NNE,22,12.0,12.0,66,0.00,,---,0.00,VWS V13.01,2013-03-25 17:15:00,
2013-03-25 12:20:00,31.8,22.1,29.25,North,0,18.2,18.2,67,0.00,,---,0.00,VWS V13.01,2013-03-25 17:20:00,
2013-03-25 12:25:00,32.3,22.6,29.25,NNE,22,0.0,14.2,67,0.00,,---,0.00,VWS V13.01,2013-03-25 17:25:00,
2013-03-25 12:30:00,32.3,22.2,29.25,North,0,7.6,7.6,66,0.00,,---,0.00,VWS V13.01,2013-03-25 17:30:00,
2013-03-25 12:35:00,32.1,22.0,29.25,NNW,338,10.2,10.2,66,0.00,,---,0.00,VWS V13.01,2013-03-25 17:35:00,
2013-03-25 12:40:00,32.3,22.6,29.25,NNE,22,2.6,7.0,67,0.00,,---,0.00,VWS V13.01,2013-03-25 17:40:00,
2013-03-25 12:45:00,32.7,22.6,29.25,NE,45,2.2,2.2,66,0.00,,---,0.00,VWS V13.01,2013-03-25 17:45:00,
2013-03-25 12:50:00,32.9,22.8,29.25,NNE,22,12.4,12.8,66,0.00,,---,0.00,VWS V13.01,2013-03-25 17:50:00,
2013-03-25 12:55:00,33.0,22.9,29.25,NNW,338,10.2,10.2,66,0.00,,---,0.00,VWS V13.01,2013-03-25 17:55:00,
2013-03-25 13:00:00,32.9,22.4,29.25,NW,315,11.0,11.0,65,0.00,,---,0.00,VWS V13.01,2013-03-25 18:00:00,
2013-03-25 13:05:00,32.7,22.2,29.25,North,0,7.6,7.6,65,0.00,,---,0.00,VWS V13.01,2013-03-25 18:05:00,
2013-03-25 13:10:00,32.7,22.2,29.25,NNW,338,7.0,7.0,65,0.00,,---,0.00,VWS V13.01,2013-03-25 18:10:00,
2013-03-25 13:15:00,32.7,22.2,29.24,NNW,338,23.2,23.2,65,0.00,,---,0.00,VWS V13.01,2013-03-25 18:15:00,
2013-03-25 13:20:00,32.7,22.2,29.24,NE,45,10.6,10.6,65,0.00,,---,0.00,VWS V13.01,2013-03-25 18:20:00,
2013-03-25 13:25:00,33.4,23.3,29.25,NNE,22,0.0,5.2,66,0.00,,---,0.00,VWS V13.01,2013-03-25 18:25:00,
2013-03-25 13:30:00,33.6,23.1,29.25,North,0,10.6,10.6,65,0.00,,---,0.00,VWS V13.01,2013-03-25 18:30:00,
2013-03-25 13:35:00,34.1,22.8,29.25,NNW,338,4.8,15.6,63,0.00,,---,0.00,VWS V13.01,2013-03-25 18:35:00,
2013-03-25 13:40:00,34.1,22.8,29.25,NNW,338,7.6,7.6,63,0.00,,---,0.00,VWS V13.01,2013-03-25 18:40:00,
2013-03-25 13:45:00,34.3,23.0,29.25,North,0,6.2,6.2,63,0.00,,---,0.00,VWS V13.01,2013-03-25 18:45:00,
2013-03-25 13:50:00,34.3,23.0,29.25,NE,45,22.8,22.8,63,0.00,,---,0.00,VWS V13.01,2013-03-25 18:50:00,
2013-03-25 13:55:00,34.3,22.6,29.25,NNE,22,5.8,5.8,62,0.00,,---,0.00,VWS V13.01,2013-03-25 18:55:00,
2013-03-25 14:00:00,34.5,22.8,29.25,NNE,22,11.6,11.6,62,0.00,,---,0.00,VWS V13.01,2013-03-25 19:00:00,
2013-03-25 14:05:00,34.7,23.0,29.25,North,0,2.2,21.8,62,0.00,,---,0.00,VWS V13.01,2013-03-25 19:05:00,
2013-03-25 14:10:00,34.3,22.3,29.25,NNW,338,18.2,18.2,61,0.00,,---,0.00,VWS V13.01,2013-03-25 19:10:00,
2013-03-25 14:15:00,34.1,22.1,29.25,NW,315,16.4,16.4,61,0.00,,---,0.00,VWS V13.01,2013-03-25 19:15:00,
2013-03-25 14:20:00,33.9,22.6,29.25,NNE,22,7.6,7.6,63,0.00,,---,0.00,VWS V13.01,2013-03-25 19:20:00,
2013-03-25 14:25:00,33.9,22.3,29.25,North,0,0.0,0.0,62,0.00,,---,0.00,VWS V13.01,2013-03-25 19:25:00,
2013-03-25 14:30:00,33.9,22.6,29.25,NW,315,30.8,30.8,63,0.00,,---,0.00,VWS V13.01,2013-03-25 19:30:00,
2013-03-25 14:36:00,33.4,22.2,29.25,NNE,22,0.0,0.0,63,0.00,,---,0.00,VWS V13.01,2013-03-25 19:36:00,
2013-03-25 14:41:00,33.4,21.8,29.25,NW,315,29.0,29.0,62,0.00,,---,0.00,VWS V13.01,2013-03-25 19:41:00,
2013-03-25 14:46:00,33.0,21.8,29.25,NNW,338,0.0,9.2,63,0.00,,---,0.00,VWS V13.01,2013-03-25 19:46:00,
2013-03-25 14:51:00,33.0,22.2,29.25,WNW,292,1.2,1.2,64,0.00,,---,0.00,VWS V13.01,2013-03-25 19:51:00,
2013-03-25 14:57:00,33.0,22.2,29.25,NW,315,20.0,20.0,64,0.00,,---,0.00,VWS V13.01,2013-03-25 19:57:00,
2013-03-25 15:02:00,33.0,22.2,29.25,NNW,338,12.4,12.4,64,0.00,,---,0.00,VWS V13.01,2013-03-25 20:02:00,
2013-03-25 15:07:00,33.0,22.2,29.25,NW,315,4.0,6.6,64,0.00,,---,0.00,VWS V13.01,2013-03-25 20:07:00,
2013-03-25 15:12:00,33.4,22.5,29.25,NNW,338,9.2,12.8,64,0.00,,---,0.00,VWS V13.01,2013-03-25 20:12:00,
2013-03-25 15:17:00,33.4,22.2,29.25,NW,315,15.6,15.6,63,0.00,,---,0.00,VWS V13.01,2013-03-25 20:17:00,
2013-03-25 15:22:00,33.2,22.0,29.25,North,0,0.0,1.2,63,0.00,,---,0.00,VWS V13.01,2013-03-25 20:22:00,
2013-03-25 15:28:00,33.4,22.5,29.26,NNE,22,0.0,0.0,64,0.00,,---,0.00,VWS V13.01,2013-03-25 20:28:00,
2013-03-25 15:33:00,33.9,23.0,29.26,NNE,22,12.8,12.8,64,0.00,,---,0.00,VWS V13.01,2013-03-25 20:33:00,
2013-03-25 15:39:00,33.9,23.0,29.26,WNW,292,9.8,9.8,64,0.00,,---,0.00,VWS V13.01,2013-03-25 20:39:00,
2013-03-25 15:44:00,34.1,23.2,29.25,NNW,338,9.8,15.6,64,0.00,,---,0.00,VWS V13.01,2013-03-25 20:44:00,
2013-03-25 15:49:00,34.1,22.8,29.26,NNW,338,12.8,12.8,63,0.00,,---,0.00,VWS V13.01,2013-03-25 20:49:00,
2013-03-25 15:55:00,33.6,22.7,29.26,NNW,338,19.6,19.6,64,0.00,,---,0.00,VWS V13.01,2013-03-25 20:55:00,
2013-03-25 16:00:00,33.4,22.5,29.26,NNW,338,16.4,16.4,64,0.00,,---,0.00,VWS V13.01,2013-03-25 21:00:00,
2013-03-25 16:05:00,33.4,22.9,29.26,North,0,0.0,15.2,65,0.00,,---,0.00,VWS V13.01,2013-03-25 21:05:00,
2013-03-25 16:10:00,33.4,22.9,29.27,NE,45,16.0,16.0,65,0.00,,---,0.00,VWS V13.01,2013-03-25 21:10:00,
2013-03-25 16:15:00,33.6,23.1,29.27,NNE,22,9.8,9.8,65,0.00,,---,0.00,VWS V13.01,2013-03-25 21:15:00,
2013-03-25 16:20:00,33.9,23.4,29.27,NW,315,10.6,10.6,65,0.00,,---,0.00,VWS V13.01,2013-03-25 21:20:00,
2013-03-25 16:25:00,33.9,23.0,29.27,WNW,292,12.0,25.4,64,0.00,,---,0.00,VWS V13.01,2013-03-25 21:25:00,
2013-03-25 16:30:00,33.8,22.9,29.27,North,0,20.0,20.0,64,0.00,,---,0.00,VWS V13.01,2013-03-25 21:30:00,
2013-03-25 16:35:00,33.4,22.9,29.28,North,0,12.8,12.8,65,0.00,,---,0.00,VWS V13.01,2013-03-25 21:35:00,
2013-03-25 16:40:00,33.2,22.7,29.28,NNW,338,10.6,10.6,65,0.00,,---,0.00,VWS V13.01,2013-03-25 21:40:00,
2013-03-25 16:45:00,33.4,22.9,29.28,NNW,338,0.0,0.0,65,0.00,,---,0.00,VWS V13.01,2013-03-25 21:45:00,
2013-03-25 16:50:00,33.6,22.7,29.28,North,0,0.0,12.4,64,0.00,,---,0.00,VWS V13.01,2013-03-25 21:50:00,
2013-03-25 16:55:00,33.8,22.9,29.28,NNW,338,29.0,29.0,64,0.00,,---,0.00,VWS V13.01,2013-03-25 21:55:00,
2013-03-25 17:00:00,33.8,22.5,29.28,NNE,22,4.4,4.4,63,0.00,,---,0.00,VWS V13.01,2013-03-25 22:00:00,
2013-03-25 17:05:00,33.6,22.4,29.28,NNE,22,0.0,5.8,63,0.00,,---,0.00,VWS V13.01,2013-03-25 22:05:00,
2013-03-25 17:10:00,33.8,22.9,29.28,North,0,0.0,0.0,64,0.00,,---,0.00,VWS V13.01,2013-03-25 22:10:00,
2013-03-25 17:15:00,33.4,22.5,29.28,NE,45,0.0,0.0,64,0.00,,---,0.00,VWS V13.01,2013-03-25 22:15:00,
2013-03-25 17:20:00,33.0,22.5,29.28,NNE,22,8.8,8.8,65,0.00,,---,0.00,VWS V13.01,2013-03-25 22:20:00,
2013-03-25 17:25:00,32.9,22.4,29.28,NNW,338,4.0,4.0,65,0.00,,---,0.00,VWS V13.01,2013-03-25 22:25:00,
2013-03-25 17:30:00,32.9,22.8,29.28,NW,315,19.2,19.2,66,0.00,,---,0.00,VWS V13.01,2013-03-25 22:30:00,
2013-03-25 17:35:00,32.9,22.8,29.28,NNE,22,0.0,0.0,66,0.00,,---,0.00,VWS V13.01,2013-03-25 22:35:00,
2013-03-25 17:40:00,32.9,22.8,29.28,North,0,0.0,0.0,66,0.00,,---,0.00,VWS V13.01,2013-03-25 22:40:00,
2013-03-25 17:45:00,32.9,22.4,29.29,WNW,292,0.0,0.0,65,0.00,,---,0.00,VWS V13.01,2013-03-25 22:45:00,
2013-03-25 17:50:00,32.7,22.6,29.29,NNW,338,9.2,10.2,66,0.00,,---,0.00,VWS V13.01,2013-03-25 22:50:00,
2013-03-25 17:55:00,32.5,22.4,29.29,North,0,0.0,0.0,66,0.00,,---,0.00,VWS V13.01,2013-03-25 22:55:00,
2013-03-25 18:00:00,32.5,22.4,29.30,NNW,338,12.0,12.0,66,0.00,,---,0.00,VWS V13.01,2013-03-25 23:00:00,
2013-03-25 18:05:00,32.1,22.4,29.30,NNW,338,13.4,13.4,67,0.00,,---,0.00,VWS V13.01,2013-03-25 23:05:00,
2013-03-25 18:10:00,32.1,22.4,29.30,NNW,338,4.8,4.8,67,0.00,,---,0.00,VWS V13.01,2013-03-25 23:10:00,
2013-03-25 18:15:00,31.8,22.1,29.30,NNW,338,14.2,14.2,67,0.00,,---,0.00,VWS V13.01,2013-03-25 23:15:00,
2013-03-25 18:20:00,31.8,22.1,29.30,NW,315,12.0,12.0,67,0.00,,---,0.00,VWS V13.01,2013-03-25 23:20:00,
2013-03-25 18:25:00,31.8,22.1,29.30,North,0,0.0,0.0,67,0.00,,---,0.00,VWS V13.01,2013-03-25 23:25:00,
2013-03-25 18:30:00,31.6,21.9,29.30,NNE,22,0.0,0.0,67,0.00,,---,0.00,VWS V13.01,2013-03-25 23:30:00,
2013-03-25 18:35:00,31.6,21.9,29.31,NNE,22,0.0,0.0,67,0.00,,---,0.00,VWS V13.01,2013-03-25 23:35:00,
2013-03-25 18:40:00,31.6,21.9,29.31,North,0,0.0,0.0,67,0.00,,---,0.00,VWS V13.01,2013-03-25 23:40:00,
2013-03-25 18:45:00,31.6,21.9,29.31,NNE,22,0.0,0.0,67,0.00,,---,0.00,VWS V13.01,2013-03-25 23:45:00,
2013-03-25 18:50:00,31.2,21.9,29.31,NNW,338,8.8,8.8,68,0.00,,---,0.00,VWS V13.01,2013-03-25 23:50:00,
2013-03-25 18:55:00,31.2,21.5,29.31,NNW,338,0.0,0.0,67,0.00,,---,0.00,VWS V13.01,2013-03-25 23:55:00,
2013-03-25 19:00:00,31.1,21.8,29.30,NW,315,18.6,18.6,68,0.00,,---,0.00,VWS V13.01,2013-03-26 00:00:00,
2013-03-25 19:05:00,30.7,21.4,29.31,NW,315,21.4,21.4,68,0.00,,---,0.00,VWS V13.01,2013-03-26 00:05:00,
2013-03-25 19:10:00,30.7,21.4,29.31,North,0,0.0,0.0,68,0.00,,---,0.00,VWS V13.01,2013-03-26 00:10:00,
2013-03-25 19:15:00,30.7,21.4,29.31,NNW,338,21.0,21.0,68,0.00,,---,0.00,VWS V13.01,2013-03-26 00:15:00,
2013-03-25 19:20:00,30.5,21.6,29.31,NNW,338,0.0,7.6,69,0.00,,---,0.00,VWS V13.01,2013-03-26 00:20:00,
2013-03-25 19:25:00,30.3,21.4,29.32,North,0,2.2,2.2,69,0.00,,---,0.00,VWS V13.01,2013-03-26 00:25:00,
2013-03-25 19:30:00,30.2,21.3,29.32,NNW,338,0.0,0.0,69,0.00,,---,0.00,VWS V13.01,2013-03-26 00:30:00,
2013-03-25 19:35:00,30.0,21.1,29.32,NNW,338,7.0,7.0,69,0.00,,---,0.00,VWS V13.01,2013-03-26 00:35:00,
2013-03-25 19:40:00,30.0,21.1,29.32,NW,315,14.2,14.2,69,0.00,,---,0.00,VWS V13.01,2013-03-26 00:40:00,
2013-03-25 19:45:00,29.8,20.9,29.32,NNW,338,3.4,3.4,69,0.00,,---,0.00,VWS V13.01,2013-03-26 00:45:00,
2013-03-25 19:50:00,29.4,20.8,29.32,North,0,0.0,0.0,70,0.00,,---,0.00,VWS V13.01,2013-03-26 00:50:00,
2013-03-25 19:55:00,29.3,20.7,29.33,NNW,338,10.2,10.2,70,0.00,,---,0.00,VWS V13.01,2013-03-26 00:55:00,
2013-03-25 20:00:00,29.1,20.5,29.32,NNW,338,1.2,1.2,70,0.00,,---,0.00,VWS V13.01,2013-03-26 01:00:00,
2013-03-25 20:05:00,29.1,20.5,29.33,NNW,338,9.2,9.2,70,0.00,,---,0.00,VWS V13.01,2013-03-26 01:05:00,
2013-03-25 20:10:00,29.1,20.5,29.33,NW,315,11.0,11.0,70,0.00,,---,0.00,VWS V13.01,2013-03-26 01:10:00,
2013-03-25 20:15:00,29.1,20.5,29.33,NNW,338,0.0,0.0,70,0.00,,---,0.00,VWS V13.01,2013-03-26 01:15:00,
2013-03-25 20:20:00,29.1,20.5,29.33,NNW,338,4.0,4.0,70,0.00,,---,0.00,VWS V13.01,2013-03-26 01:20:00,
2013-03-25 20:25:00,29.1,20.5,29.33,North,0,0.0,0.0,70,0.00,,---,0.00,VWS V13.01,2013-03-26 01:25:00,
2013-03-25 20:30:00,28.9,20.4,29.33,NNW,338,0.0,0.0,70,0.00,,---,0.00,VWS V13.01,2013-03-26 01:30:00,
2013-03-25 20:35:00,28.9,20.4,29.33,North,0,4.8,13.8,70,0.00,,---,0.00,VWS V13.01,2013-03-26 01:35:00,
2013-03-25 20:40:00,28.9,20.4,29.33,North,0,0.0,0.0,70,0.00,,---,0.00,VWS V13.01,2013-03-26 01:40:00,
2013-03-25 20:45:00,28.7,20.2,29.33,North,0,3.4,3.4,70,0.00,,---,0.00,VWS V13.01,2013-03-26 01:45:00,
2013-03-25 20:50:00,28.7,20.2,29.33,NW,315,13.8,14.2,70,0.00,,---,0.00,VWS V13.01,2013-03-26 01:50:00,
2013-03-25 20:55:00,28.5,20.0,29.34,NNW,338,8.4,8.4,70,0.00,,---,0.00,VWS V13.01,2013-03-26 01:55:00,
2013-03-25 21:00:00,28.5,20.0,29.34,NW,315,12.4,12.4,70,0.00,,---,0.00,VWS V13.01,2013-03-26 02:00:00,
2013-03-25 21:05:00,28.2,19.7,29.34,NW,315,16.0,16.0,70,0.00,,---,0.00,VWS V13.01,2013-03-26 02:05:00,
2013-03-25 21:10:00,28.2,19.7,29.34,NNW,338,4.4,4.4,70,0.00,,---,0.00,VWS V13.01,2013-03-26 02:10:00,
2013-03-25 21:15:00,28.0,19.5,29.34,NNW,338,7.6,7.6,70,0.00,,---,0.00,VWS V13.01,2013-03-26 02:15:00,
2013-03-25 21:20:00,28.0,19.5,29.34,North,0,8.0,8.0,70,0.00,,---,0.00,VWS V13.01,2013-03-26 02:20:00,
2013-03-25 21:25:00,28.0,19.5,29.34,NW,315,0.0,0.0,70,0.00,,---,0.00,VWS V13.01,2013-03-26 02:25:00,
2013-03-25 21:30:00,28.0,19.5,29.34,NNW,338,0.0,0.0,70,0.00,,---,0.00,VWS V13.01,2013-03-26 02:30:00,
2013-03-25 21:35:00,28.0,19.5,29.35,North,0,0.0,0.0,70,0.00,,---,0.00,VWS V13.01,2013-03-26 02:35:00,
2013-03-25 21:40:00,28.0,19.5,29.34,NW,315,9.2,9.2,70,0.00,,---,0.00,VWS V13.01,2013-03-26 02:40:00,
2013-03-25 21:45:00,28.0,19.5,29.34,NNW,338,10.6,10.6,70,0.00,,---,0.00,VWS V13.01,2013-03-26 02:45:00,
2013-03-25 21:50:00,27.8,19.3,29.35,North,0,4.0,4.0,70,0.00,,---,0.00,VWS V13.01,2013-03-26 02:50:00,
2013-03-25 21:55:00,27.6,19.1,29.35,North,0,0.0,0.0,70,0.00,,---,0.00,VWS V13.01,2013-03-26 02:55:00,
2013-03-25 22:00:00,27.6,19.4,29.35,NNW,338,0.0,0.0,71,0.00,,---,0.00,VWS V13.01,2013-03-26 03:00:00,
2013-03-25 22:05:00,27.6,19.8,29.35,North,0,6.6,13.8,72,0.00,,---,0.00,VWS V13.01,2013-03-26 03:05:00,
2013-03-25 22:10:00,27.6,20.1,29.35,NNW,338,14.6,14.6,73,0.00,,---,0.00,VWS V13.01,2013-03-26 03:10:00,
2013-03-25 22:15:00,27.5,20.0,29.35,NW,315,4.0,4.0,73,0.00,,---,0.00,VWS V13.01,2013-03-26 03:15:00,
2013-03-25 22:20:00,27.3,20.1,29.35,North,0,0.0,0.0,74,0.00,,---,0.00,VWS V13.01,2013-03-26 03:20:00,
2013-03-25 22:25:00,27.3,20.4,29.36,NW,315,7.0,7.0,75,0.00,,---,0.00,VWS V13.01,2013-03-26 03:25:00,
2013-03-25 22:30:00,27.3,20.8,29.36,NNE,22,0.0,0.0,76,0.00,,---,0.00,VWS V13.01,2013-03-26 03:30:00,
2013-03-25 22:35:00,27.3,20.8,29.35,NNW,338,10.2,19.2,76,0.00,,---,0.00,VWS V13.01,2013-03-26 03:35:00,
2013-03-25 22:40:00,27.1,20.9,29.36,WNW,292,21.4,23.2,77,0.00,,---,0.00,VWS V13.01,2013-03-26 03:40:00,
2013-03-25 22:45:00,27.1,20.9,29.36,NNW,338,13.4,13.4,77,0.00,,---,0.00,VWS V13.01,2013-03-26 03:45:00,
2013-03-25 22:50:00,27.1,20.9,29.36,NW,315,4.8,9.8,77,0.00,,---,0.00,VWS V13.01,2013-03-26 03:50:00,
2013-03-25 22:55:00,27.1,21.2,29.36,NNW,338,12.8,12.8,78,0.00,,---,0.00,VWS V13.01,2013-03-26 03:55:00,
2013-03-25 23:00:00,27.1,21.2,29.36,NW,315,0.0,0.0,78,0.00,,---,0.00,VWS V13.01,2013-03-26 04:00:00,
2013-03-25 23:01:00,26.9,21.0,29.36,NW,315,0.0,0.0,78,0.00,,---,0.00,VWS V13.01,2013-03-26 04:01:00,
2013-03-25 23:03:00,26.9,21.0,29.36,NNW,338,11.6,11.6,78,0.00,,---,0.00,VWS V13.01,2013-03-26 04:03:00,
2013-03-25 23:08:00,26.9,21.0,29.36,WNW,292,0.0,0.0,78,0.00,,---,0.00,VWS V13.01,2013-03-26 04:08:00,
2013-03-25 23:13:00,26.7,20.8,29.36,NW,315,5.2,5.2,78,0.00,,---,0.00,VWS V13.01,2013-03-26 04:13:00,
2013-03-25 23:19:00,26.7,21.1,29.36,North,0,3.0,3.0,79,0.00,,---,0.00,VWS V13.01,2013-03-26 04:19:00,
2013-03-25 23:23:00,26.6,21.0,29.36,NNW,338,0.0,0.0,79,0.00,,---,0.00,VWS V13.01,2013-03-26 04:23:00,
2013-03-25 23:28:00,26.4,20.8,29.36,North,0,10.6,10.6,79,0.00,,---,0.00,VWS V13.01,2013-03-26 04:28:00,
2013-03-25 23:33:00,26.4,20.8,29.36,NW,315,3.0,3.0,79,0.00,,---,0.00,VWS V13.01,2013-03-26 04:33:00,
2013-03-25 23:38:00,26.4,20.8,29.36,NW,315,17.0,17.0,79,0.00,,---,0.00,VWS V13.01,2013-03-26 04:38:00,
2013-03-25 23:44:00,26.4,20.8,29.37,NNW,338,0.0,0.0,79,0.00,,---,0.00,VWS V13.01,2013-03-26 04:44:00,
2013-03-25 23:49:00,26.4,20.8,29.37,NNW,338,0.0,0.0,79,0.00,,---,0.00,VWS V13.01,2013-03-26 04:49:00,
2013-03-25 23:54:00,26.2,20.6,29.36,NNW,338,0.0,0.0,79,0.00,,---,0.00,VWS V13.01,2013-03-26 04:54:00,
2013-03-25 23:59:00,26.2,20.6,29.36,NNW,338,0.0,0.0,79,0.00,,---,0.00,VWS V13.01,2013-03-26 04:59:00,